Location: ???? ???? ?????
(31.2680°N, 31.7283°E)
Time: 09:48:00
(UTC+00:00)

FALCON 9 R/B - Pass Details

Date: 13 July 2020
Orbit: 295 x 10134 km, 34.5° (Epoch: 07 August)

Event Time Altitude Azimuth Distance (km) Brightness Sun altitude
Rises 18:24:19 0° 281° (W) 2,603 5.9 -16.2°
Reaches altitude 10° 18:27:05 10° 264° (W) 1,308 3.9 -16.7°
Enters shadow 18:28:53 21° 217° (SW) 747 2.0 -17.0°
